Time,TemperatureF,DewpointF,PressureIn,WindDirection,WindDirectionDegrees,WindSpeedMPH,WindSpeedGustMPH,Humidity,HourlyPrecipIn,Conditions,Clouds,dailyrainin,SolarRadiationWatts/m^2,SoftwareType,DateUTC
2013-01-04 00:20:00,18.4,16.0,29.95,ESE,121,2.0,11.0,89,0.00,,,0.00,0,weatherlink.com 1.10,2013-01-04 05:20:00,
2013-01-04 00:36:00,17.9,15.0,29.94,East,82,5.0,7.0,89,0.00,,,0.00,0,weatherlink.com 1.10,2013-01-04 05:36:00,
2013-01-04 00:51:00,18.0,16.0,29.95,SSE,148,3.0,10.0,90,0.00,,,0.00,0,weatherlink.com 1.10,2013-01-04 05:51:00,
2013-01-04 01:06:00,19.0,17.0,29.94,South,176,0.0,10.0,90,0.00,,,0.00,0,weatherlink.com 1.10,2013-01-04 06:06:00,
2013-01-04 01:21:00,19.5,17.0,29.94,SE,138,5.0,9.0,89,0.00,,,0.00,0,weatherlink.com 1.10,2013-01-04 06:21:00,
2013-01-04 01:36:00,19.8,17.0,29.94,ENE,59,1.0,10.0,90,0.00,,,0.00,0,weatherlink.com 1.10,2013-01-04 06:36:00,
2013-01-04 01:51:00,19.9,18.0,29.94,ENE,65,4.0,13.0,90,0.00,,,0.00,0,weatherlink.com 1.10,2013-01-04 06:51:00,
2013-01-04 02:06:00,19.7,17.0,29.95,South,175,2.0,11.0,90,0.00,,,0.00,0,weatherlink.com 1.10,2013-01-04 07:06:00,
2013-01-04 02:21:00,20.1,18.0,29.94,NW,318,6.0,18.0,90,0.00,,,0.00,0,weatherlink.com 1.10,2013-01-04 07:21:00,
2013-01-04 02:38:00,20.4,18.0,29.94,SSW,209,3.0,19.0,89,0.00,,,0.00,0,weatherlink.com 1.10,2013-01-04 07:38:00,
2013-01-04 02:51:00,20.6,18.0,29.93,SE,134,1.0,14.0,89,0.00,,,0.00,0,weatherlink.com 1.10,2013-01-04 07:51:00,
2013-01-04 03:06:00,20.6,18.0,29.93,West,270,1.0,19.0,89,0.00,,,0.00,0,weatherlink.com 1.10,2013-01-04 08:06:00,
2013-01-04 03:21:00,20.8,18.0,29.93,NNW,341,2.0,10.0,89,0.01,,,0.01,0,weatherlink.com 1.10,2013-01-04 08:21:00,
2013-01-04 03:36:00,20.7,18.0,29.93,SW,229,1.0,10.0,89,0.01,,,0.01,0,weatherlink.com 1.10,2013-01-04 08:36:00,
2013-01-04 03:51:00,20.9,18.0,29.92,South,177,2.0,27.0,89,0.01,,,0.01,0,weatherlink.com 1.10,2013-01-04 08:51:00,
2013-01-04 04:06:00,21.2,19.0,29.91,SE,145,3.0,14.0,89,0.01,,,0.01,0,weatherlink.com 1.10,2013-01-04 09:06:00,
2013-01-04 04:21:00,21.3,19.0,29.91,SSE,150,13.0,28.0,89,0.00,,,0.01,0,weatherlink.com 1.10,2013-01-04 09:21:00,
2013-01-04 04:36:00,21.3,19.0,29.91,SW,227,6.0,32.0,89,0.00,,,0.01,0,weatherlink.com 1.10,2013-01-04 09:36:00,
2013-01-04 04:51:00,21.3,19.0,29.91,SSW,207,10.0,18.0,90,0.00,,,0.01,0,weatherlink.com 1.10,2013-01-04 09:51:00,
2013-01-04 05:06:00,21.5,19.0,29.90,NW,308,6.0,20.0,90,0.00,,,0.01,0,weatherlink.com 1.10,2013-01-04 10:06:00,
2013-01-04 05:21:00,21.5,19.0,29.90,WNW,300,5.0,18.0,90,0.00,,,0.01,0,weatherlink.com 1.10,2013-01-04 10:21:00,
2013-01-04 05:36:00,21.6,19.0,29.89,NW,314,5.0,14.0,90,0.00,,,0.01,0,weatherlink.com 1.10,2013-01-04 10:36:00,
2013-01-04 05:51:00,21.8,19.0,29.89,WNW,298,3.0,15.0,89,0.00,,,0.01,0,weatherlink.com 1.10,2013-01-04 10:51:00,
2013-01-04 06:06:00,21.8,19.0,29.90,WNW,296,2.0,19.0,89,0.00,,,0.01,0,weatherlink.com 1.10,2013-01-04 11:06:00,
2013-01-04 06:22:00,21.8,19.0,29.89,WSW,246,4.0,20.0,89,0.00,,,0.01,0,weatherlink.com 1.10,2013-01-04 11:22:00,
2013-01-04 06:37:00,22.0,19.0,29.90,SSE,157,5.0,22.0,88,0.00,,,0.01,0,weatherlink.com 1.10,2013-01-04 11:37:00,
2013-01-04 06:52:00,22.2,19.0,29.90,South,186,6.0,27.0,86,0.00,,,0.01,0,weatherlink.com 1.10,2013-01-04 11:52:00,
2013-01-04 07:08:00,22.2,19.0,29.90,West,281,4.0,23.0,86,0.00,,,0.01,0,weatherlink.com 1.10,2013-01-04 12:08:00,
2013-01-04 07:22:00,22.2,19.0,29.90,NW,325,8.0,25.0,86,0.00,,,0.01,0,weatherlink.com 1.10,2013-01-04 12:22:00,
2013-01-04 07:37:00,22.2,19.0,29.89,NW,318,5.0,23.0,86,0.00,,,0.01,0,weatherlink.com 1.10,2013-01-04 12:37:00,
2013-01-04 07:52:00,22.0,18.0,29.89,South,186,6.0,25.0,85,0.00,,,0.01,7,weatherlink.com 1.10,2013-01-04 12:52:00,
2013-01-04 08:08:00,21.9,18.0,29.88,WNW,296,4.0,20.0,84,0.00,,,0.01,23,weatherlink.com 1.10,2013-01-04 13:08:00,
2013-01-04 08:23:00,21.8,18.0,29.87,NW,323,23.0,26.0,84,0.00,,,0.01,37,weatherlink.com 1.10,2013-01-04 13:23:00,
2013-01-04 08:38:00,22.0,18.0,29.87,WNW,284,1.0,25.0,83,0.00,,,0.01,81,weatherlink.com 1.10,2013-01-04 13:38:00,
2013-01-04 08:53:00,22.2,18.0,29.87,North,5,9.0,18.0,82,0.00,,,0.01,72,weatherlink.com 1.10,2013-01-04 13:53:00,
2013-01-04 09:08:00,22.1,17.0,29.85,NNE,13,3.0,25.0,81,0.00,,,0.01,162,weatherlink.com 1.10,2013-01-04 14:08:00,
2013-01-04 09:24:00,23.5,18.0,29.86,NW,321,5.0,21.0,80,0.00,,,0.01,272,weatherlink.com 1.10,2013-01-04 14:24:00,
2013-01-04 09:39:00,23.9,18.0,29.86,SE,146,2.0,27.0,79,0.00,,,0.01,309,weatherlink.com 1.10,2013-01-04 14:39:00,
2013-01-04 09:54:00,24.3,18.0,29.87,West,274,7.0,15.0,78,0.00,,,0.01,385,weatherlink.com 1.10,2013-01-04 14:54:00,
2013-01-04 10:09:00,24.5,18.0,29.86,WSW,237,4.0,16.0,77,0.00,,,0.01,376,weatherlink.com 1.10,2013-01-04 15:09:00,
2013-01-04 10:24:00,24.8,19.0,29.85,West,281,4.0,26.0,77,0.00,,,0.01,415,weatherlink.com 1.10,2013-01-04 15:24:00,
2013-01-04 10:39:00,24.4,18.0,29.85,NW,326,5.0,18.0,78,0.00,,,0.01,134,weatherlink.com 1.10,2013-01-04 15:39:00,
2013-01-04 10:55:00,24.2,19.0,29.85,South,190,18.0,18.0,79,0.00,,,0.01,160,weatherlink.com 1.10,2013-01-04 15:55:00,
2013-01-04 11:09:00,25.4,19.0,29.84,SW,233,4.0,15.0,77,0.00,,,0.01,545,weatherlink.com 1.10,2013-01-04 16:09:00,
2013-01-04 11:25:00,25.1,19.0,29.84,NW,319,5.0,14.0,78,0.00,,,0.01,227,weatherlink.com 1.10,2013-01-04 16:25:00,
2013-01-04 11:41:00,25.3,19.0,29.83,WNW,298,6.0,23.0,78,0.00,,,0.01,207,weatherlink.com 1.10,2013-01-04 16:41:00,
2013-01-04 11:55:00,25.2,19.0,29.83,West,275,6.0,19.0,77,0.00,,,0.01,142,weatherlink.com 1.10,2013-01-04 16:55:00,
2013-01-04 12:11:00,25.7,19.0,29.82,WNW,288,2.0,33.0,77,0.00,,,0.01,199,weatherlink.com 1.10,2013-01-04 17:11:00,
2013-01-04 12:25:00,25.9,20.0,29.82,WNW,298,0.0,19.0,77,0.00,,,0.01,172,weatherlink.com 1.10,2013-01-04 17:25:00,
2013-01-04 12:41:00,25.9,19.0,29.81,NW,314,7.0,22.0,76,0.00,,,0.01,179,weatherlink.com 1.10,2013-01-04 17:41:00,
2013-01-04 12:59:00,26.3,19.0,29.81,WSW,244,1.0,13.0,75,0.00,,,0.01,162,weatherlink.com 1.10,2013-01-04 17:59:00,
2013-01-04 13:11:00,26.3,19.0,29.80,WNW,303,6.0,23.0,75,0.00,,,0.01,141,weatherlink.com 1.10,2013-01-04 18:11:00,
2013-01-04 13:26:00,26.5,19.0,29.80,SSW,203,3.0,10.0,74,0.00,,,0.01,160,weatherlink.com 1.10,2013-01-04 18:26:00,
2013-01-04 13:41:00,26.7,19.0,29.78,SW,221,2.0,22.0,74,0.00,,,0.01,178,weatherlink.com 1.10,2013-01-04 18:41:00,
2013-01-04 13:56:00,26.7,19.0,29.79,SSW,192,2.0,29.0,74,0.00,,,0.01,185,weatherlink.com 1.10,2013-01-04 18:56:00,
2013-01-04 14:12:00,26.9,19.0,29.79,SSW,200,8.0,22.0,73,0.00,,,0.01,128,weatherlink.com 1.10,2013-01-04 19:12:00,
2013-01-04 14:27:00,26.7,19.0,29.79,South,180,7.0,27.0,74,0.00,,,0.01,102,weatherlink.com 1.10,2013-01-04 19:27:00,
2013-01-04 14:42:00,26.7,19.0,29.79,NW,313,2.0,15.0,74,0.00,,,0.01,58,weatherlink.com 1.10,2013-01-04 19:42:00,
2013-01-04 14:57:00,26.6,19.0,29.79,SW,236,4.0,19.0,74,0.00,,,0.01,40,weatherlink.com 1.10,2013-01-04 19:57:00,
2013-01-04 15:12:00,26.6,19.0,29.79,NW,311,7.0,14.0,74,0.00,,,0.01,49,weatherlink.com 1.10,2013-01-04 20:12:00,
2013-01-04 15:27:00,26.6,19.0,29.78,South,177,1.0,16.0,74,0.00,,,0.01,42,weatherlink.com 1.10,2013-01-04 20:27:00,
2013-01-04 15:42:00,26.3,19.0,29.79,WNW,297,5.0,24.0,74,0.00,,,0.01,21,weatherlink.com 1.10,2013-01-04 20:42:00,
2013-01-04 15:57:00,26.1,19.0,29.79,SW,227,2.0,25.0,75,0.00,,,0.01,14,weatherlink.com 1.10,2013-01-04 20:57:00,
2013-01-04 16:13:00,26.0,19.0,29.79,WNW,298,1.0,18.0,75,0.00,,,0.01,7,weatherlink.com 1.10,2013-01-04 21:13:00,
2013-01-04 16:43:00,25.8,19.0,29.79,South,171,10.0,16.0,75,0.00,,,0.01,0,weatherlink.com 1.10,2013-01-04 21:43:00,
2013-01-04 16:58:00,25.9,19.0,29.78,SSW,194,4.0,18.0,74,0.00,,,0.01,0,weatherlink.com 1.10,2013-01-04 21:58:00,
2013-01-04 17:13:00,26.0,19.0,29.78,WNW,294,5.0,25.0,74,0.00,,,0.01,0,weatherlink.com 1.10,2013-01-04 22:13:00,
2013-01-04 17:28:00,25.9,18.0,29.78,South,170,6.0,16.0,73,0.00,,,0.01,0,weatherlink.com 1.10,2013-01-04 22:28:00,
2013-01-04 17:43:00,25.9,19.0,29.79,SSW,209,8.0,25.0,74,0.00,,,0.01,0,weatherlink.com 1.10,2013-01-04 22:43:00,
2013-01-04 17:59:00,25.8,19.0,29.80,NW,319,8.0,39.0,74,0.00,,,0.01,0,weatherlink.com 1.10,2013-01-04 22:59:00,
2013-01-04 18:14:00,25.8,18.0,29.80,NW,304,9.0,16.0,73,0.00,,,0.01,0,weatherlink.com 1.10,2013-01-04 23:14:00,
2013-01-04 18:29:00,25.8,18.0,29.80,NW,315,1.0,26.0,73,0.00,,,0.01,0,weatherlink.com 1.10,2013-01-04 23:29:00,
2013-01-04 18:44:00,25.6,18.0,29.80,South,170,4.0,18.0,74,0.00,,,0.01,0,weatherlink.com 1.10,2013-01-04 23:44:00,
2013-01-04 18:59:00,25.6,18.0,29.80,WSW,251,7.0,21.0,73,0.00,,,0.01,0,weatherlink.com 1.10,2013-01-04 23:59:00,
2013-01-04 19:14:00,25.4,18.0,29.80,North,355,4.0,26.0,74,0.00,,,0.01,0,weatherlink.com 1.10,2013-01-05 00:14:00,
2013-01-04 19:29:00,25.4,18.0,29.80,NW,318,6.0,34.0,73,0.00,,,0.01,0,weatherlink.com 1.10,2013-01-05 00:29:00,
2013-01-04 19:44:00,25.3,18.0,29.80,NNW,330,7.0,23.0,73,0.00,,,0.01,0,weatherlink.com 1.10,2013-01-05 00:44:00,
2013-01-04 20:01:00,25.1,18.0,29.79,SE,141,4.0,30.0,74,0.00,,,0.01,0,weatherlink.com 1.10,2013-01-05 01:01:00,
2013-01-04 20:15:00,25.1,18.0,29.79,East,84,3.0,23.0,74,0.00,,,0.01,0,weatherlink.com 1.10,2013-01-05 01:15:00,
2013-01-04 20:30:00,25.0,18.0,29.79,NNE,30,1.0,24.0,75,0.00,,,0.01,0,weatherlink.com 1.10,2013-01-05 01:30:00,
2013-01-04 20:45:00,24.7,18.0,29.79,SW,224,8.0,25.0,75,0.00,,,0.01,0,weatherlink.com 1.10,2013-01-05 01:45:00,
2013-01-04 21:01:00,24.7,18.0,29.78,NW,309,2.0,19.0,74,0.00,,,0.01,0,weatherlink.com 1.10,2013-01-05 02:01:00,
2013-01-04 21:15:00,24.7,18.0,29.78,West,271,6.0,21.0,74,0.00,,,0.01,0,weatherlink.com 1.10,2013-01-05 02:15:00,
2013-01-04 21:30:00,24.5,18.0,29.78,NW,319,4.0,30.0,76,0.00,,,0.01,0,weatherlink.com 1.10,2013-01-05 02:30:00,
2013-01-04 21:45:00,24.2,18.0,29.78,SW,228,4.0,25.0,77,0.00,,,0.01,0,weatherlink.com 1.10,2013-01-05 02:45:00,
2013-01-04 22:00:00,23.9,18.0,29.77,SSW,202,5.0,21.0,79,0.00,,,0.01,0,weatherlink.com 1.10,2013-01-05 03:00:00,
2013-01-04 22:15:00,23.8,19.0,29.78,WNW,298,5.0,26.0,81,0.00,,,0.01,0,weatherlink.com 1.10,2013-01-05 03:15:00,
2013-01-04 22:30:00,23.7,19.0,29.77,WNW,303,2.0,20.0,81,0.00,,,0.01,0,weatherlink.com 1.10,2013-01-05 03:30:00,
2013-01-04 22:45:00,23.7,18.0,29.79,NW,304,3.0,15.0,80,0.00,,,0.01,0,weatherlink.com 1.10,2013-01-05 03:45:00,
2013-01-04 23:00:00,23.8,19.0,29.79,SW,235,15.0,31.0,81,0.00,,,0.01,0,weatherlink.com 1.10,2013-01-05 04:00:00,
2013-01-04 23:15:00,23.6,19.0,29.79,SSW,194,18.0,18.0,82,0.00,,,0.01,0,weatherlink.com 1.10,2013-01-05 04:15:00,
2013-01-04 23:30:00,23.4,19.0,29.79,NW,324,6.0,21.0,82,0.00,,,0.01,0,weatherlink.com 1.10,2013-01-05 04:30:00,
2013-01-04 23:45:00,23.5,19.0,29.79,West,279,11.0,20.0,83,0.00,,,0.01,0,weatherlink.com 1.10,2013-01-05 04:45:00,